SL-14 DEB, 45357

Orbit data source: Space-Track

SL-14 DEB, 45357 is space debris in LEO originally from a launch on Thu, 15 Aug 1991 UTC launched from the Plesetsk Missile And Space Complex (PKMTR). Debris objects in space refer to the collection of defunct objects orbiting the Earth. Examples of debris include non-operational satellites, rocket bodies, and fragments generated from explosions, collisions, or faulty payload assembly.

Loading next visibility...
SL-14 DEB details
Identifier
45357, 1991-056CR
Orbit
LEO
Last TLE update3 days ago
Origin
Flag of CISRosgidromet (CIS)
ManufacturerUnknown
MissionSpacecraft
Bus & MotorUnknown
MassUnknown
Launch date (UTC)
1991-08-15 (33 years ago)
Launch vehicleUnknown
Launch site
Plesetsk Missile And Space Complex (PKMTR)
Object type
Payload
Rocket body
Debris
Shape & HBRUnknown
Radar Cross SectionSmall (<0.1 m²)

Expand to show TLE details & history

TLE from 3 days ago
0 SL-14 DEB
1 45357U 91056CR  24343.44983444  .00002537  00000-0  48803-2 0  9993
2 45357  82.5697 138.4925 0080497 256.1110 103.1059 13.35544992232022
Epoch: 2024-12-08T10:47Z
Definitive object data (Epoch: 2024-12-08T10:47:45.695Z)
Latitude-0.00002°
Longitude-101.13531°
Altitude1,142.914 km
Speed7.275 km/s
True Right ascension09h 13m 58s
True Declination0° 00' 00"
Sunlit
Object was in daylight at TLE epoch
Visualization TLE readout
Latitude59.34515°
Longitude-91.00906°
Altitude1,195.835 km
Speed7.232 km/s
Apparent Right ascension08h 57m 17s
Apparent Declination15° 48' 19"
Sunlit
Object is in daylight
Visualization observer readout
Local Sidereal Time20:12:17
Azimuth347.021° N
Elevation-33.301°
Doppler factor1
Orbital elements
Apogee altitude1,183.521 km
Perigee altitude1,062.755 km
Semi-major axis7,501.275 km
Eccentricity0.0080497
Inclination82.5697°
RAAN138.4925°
Arg. of periapsis256.111°
True anomaly104.00222°
Mean anomaly103.1059°
Eccentric anomaly103.55427°
Mean motion3.34072 °/min
BSTAR0.0048803
Orbital period107.76 mins
Loading maneuver chart data...
Loading historical data...
Loading historical data...
Loading historical data...
Loading historical data...
Loading historical data...
Loading historical data...
Loading historical data...

SL-14 DEB Visibility forecast

Observer location: undefined°, undefined

Span
Click to sort rows by Start time (UTC) header in descending order
Start Az.
Max El. time (UTC)
Max El. Az.
Max El.
End time (UTC)
End Az.
14 mins2024-12-11 22:05:22.384Z352.921° N2024-12-11 22:12:22.384Z38.265° NE44.925°2024-12-11 22:19:22.384Z173.078° S
5 mins2024-12-11 23:58:22.384Z297.447° NW2024-12-12 00:00:22.384Z278.869° WNW14.154°2024-12-12 00:03:22.384Z252.58° W
11 mins2024-12-12 10:12:22.384Z152.306° SSE2024-12-12 10:17:22.384Z89.55° E35.202°2024-12-12 10:23:22.384Z22.626° NE
11 mins2024-12-12 12:01:22.384Z233.537° WSW2024-12-12 12:06:22.384Z290.342° WNW28.316°2024-12-12 12:12:22.384Z348.481° N
11 mins2024-12-12 21:29:22.384Z6.685° NNE2024-12-12 21:34:22.384Z70.56° E38.556°2024-12-12 21:40:22.384Z151.189° SSE
|